Location: Bergnershof
(48.9468°N, 10.9431°E)
Time: 23:46:59
(UTC+00:00)

Cosmos 1844 Rocket - Pass Details

Date: 17 June 2021
Orbit: 823 x 846 km, 71.0° (Epoch: 30 July)

Event Time Altitude Azimuth Distance (km) Brightness Sun altitude
Rises 20:16:57 0° 332° (NNW) 3,411 7.8 -7.2°
Reaches altitude 10° 20:19:25 10° 334° (NNW) 2,475 6.7 -7.5°
Maximum altitude 20:25:06 74° 60° (ENE) 884 2.8 -8.1°
Enters shadow 20:30:39 11° 145° (SE) 2,418 4.4 -8.7°
